When you browse on this site, cookies collect data to enhance your experience and personalize the content and advertising you see.
Visit our Privacy Policy to learn more. By continuing to use the site, you agree to this use of cookies and data.
  • In United Kingdom
  • List of Countries
  • For 7 days
  • Water Temperature
  • Satellite Maps
  • Weather Map
  • Weather Widgets
  • user-avatar
    Login

    Hourly Weather Bregenz

    Today, 26 April, Friday

    Time Temperature Precipitation Wind Pressure Humidity
    00:00 +5°C° 0 mm 2 mps 642 mmHg 77%
    01:00 +5°C° 0 mm 2 mps 642 mmHg 81%
    02:00 +5°C° 0 mm 1 mps 642 mmHg 83%
    03:00 +5°C° 0 mm 1 mps 641 mmHg 86%
    04:00 +4°C° 0 mm 1 mps 641 mmHg 88%
    05:00 +4°C° 0.3 mm 1 mps 641 mmHg 88%
    06:00 +4°C° 0.3 mm 2 mps 641 mmHg 87%
    07:00 +4°C° 0.3 mm 2 mps 642 mmHg 87%
    08:00 +2°C° 2.5 mm 3 mps 642 mmHg 89%
    09:00 +1°C° 2.5 mm 3 mps 642 mmHg 92%
    10:00 -1°C° 2.5 mm 4 mps 642 mmHg 95%
    11:00 -1°C° 2.6 mm 4 mps 642 mmHg 95%
    12:00 -1°C° 2.6 mm 3 mps 643 mmHg 94%
    13:00 -1°C° 2.6 mm 3 mps 643 mmHg 94%
    14:00 +1°C° 1 mm 2 mps 643 mmHg 93%
    15:00 +1°C° 1 mm 2 mps 644 mmHg 93%
    16:00 +3°C° 1 mm 1 mps 644 mmHg 92%
    17:00 +2°C° 0.4 mm 1 mps 645 mmHg 92%
    18:00 +2°C° 0.4 mm 1 mps 645 mmHg 93%
    19:00 +2°C° 0.4 mm 1 mps 645 mmHg 93%
    20:00 +1°C° 0.1 mm 1 mps 645 mmHg 93%
    21:00 -1°C° 0.1 mm 2 mps 645 mmHg 92%
    22:00 -2°C° 0.1 mm 2 mps 646 mmHg 92%
    23:00 -2°C° 0.1 mm 2 mps 646 mmHg 91%

    Tomorrow, 27 April, Saturday

    Time Temperature Precipitation Wind Pressure Humidity
    00:00 -1°C° 0.1 mm 2 mps 646 mmHg 90%
    01:00 -1°C° 0.1 mm 2 mps 646 mmHg 90%
    02:00 -2°C° 0 mm 2 mps 646 mmHg 89%
    03:00 -2°C° 0 mm 2 mps 646 mmHg 89%
    04:00 -3°C° 0 mm 2 mps 646 mmHg 88%
    05:00 -2°C° 0 mm 2 mps 646 mmHg 87%
    06:00 -1°C° 0 mm 2 mps 646 mmHg 87%
    07:00 -1°C° 0 mm 2 mps 647 mmHg 86%
    08:00 +2°C° 0 mm 2 mps 647 mmHg 84%
    09:00 +3°C° 0 mm 2 mps 647 mmHg 81%
    10:00 +4°C° 0 mm 2 mps 647 mmHg 79%
    11:00 +5°C° 0.1 mm 2 mps 647 mmHg 78%
    12:00 +6°C° 0.1 mm 2 mps 647 mmHg 76%
    13:00 +7°C° 0.1 mm 2 mps 647 mmHg 75%
    14:00 +6°C° 0.4 mm 2 mps 647 mmHg 79%
    15:00 +5°C° 0.4 mm 2 mps 647 mmHg 84%
    16:00 +4°C° 0.4 mm 3 mps 646 mmHg 88%
    17:00 +3°C° 0.6 mm 3 mps 646 mmHg 90%
    18:00 +3°C° 0.6 mm 2 mps 646 mmHg 92%
    19:00 +3°C° 0.6 mm 2 mps 647 mmHg 94%
    20:00 +2°C° 0.8 mm 2 mps 647 mmHg 95%
    21:00 +2°C° 0.8 mm 2 mps 647 mmHg 96%
    22:00 +1°C° 0.8 mm 2 mps 648 mmHg 96%
    23:00 +1°C° 0.4 mm 2 mps 648 mmHg 96%

    Day after tomorrow, 28 April, Sunday

    Time Temperature Precipitation Wind Pressure Humidity
    00:00 -1°C° 0.4 mm 2 mps 647 mmHg 96%
    01:00 +1°C° 0.4 mm 1 mps 647 mmHg 96%
    02:00 +1°C° 0.4 mm 1 mps 647 mmHg 96%
    03:00 +1°C° 0.4 mm 1 mps 647 mmHg 96%
    04:00 +1°C° 0.4 mm 1 mps 646 mmHg 96%
    05:00 -1°C° 0.5 mm 2 mps 646 mmHg 95%
    06:00 -1°C° 0.5 mm 2 mps 646 mmHg 95%
    07:00 -1°C° 0.5 mm 2 mps 646 mmHg 95%
    08:00 -1°C° 0.5 mm 2 mps 646 mmHg 93%
    09:00 -1°C° 0.5 mm 2 mps 646 mmHg 92%
    10:00 -1°C° 0.5 mm 2 mps 646 mmHg 90%
    11:00 +1°C° 0.2 mm 2 mps 646 mmHg 85%
    12:00 +2°C° 0.2 mm 2 mps 646 mmHg 80%
    13:00 +3°C° 0.2 mm 2 mps 646 mmHg 75%
    14:00 +3°C° 0.3 mm 2 mps 646 mmHg 78%
    15:00 +3°C° 0.3 mm 2 mps 646 mmHg 80%
    16:00 +3°C° 0.3 mm 2 mps 646 mmHg 82%
    17:00 +2°C° 0.6 mm 2 mps 645 mmHg 86%
    18:00 +2°C° 0.6 mm 1 mps 645 mmHg 90%
    19:00 +1°C° 0.6 mm 1 mps 645 mmHg 93%
    20:00 +1°C° 0.3 mm 1 mps 645 mmHg 94%
    21:00 0°C° 0.3 mm 1 mps 646 mmHg 94%
    22:00 0°C° 0.3 mm 1 mps 646 mmHg 94%
    23:00 0°C° 0.1 mm 1 mps 646 mmHg 94%

    29 April, Monday

    Time Temperature Precipitation Wind Pressure Humidity
    00:00 -1°C° 0.1 mm 1 mps 645 mmHg 93%
    01:00 -3°C° 0.1 mm 2 mps 645 mmHg 93%
    02:00 -4°C° 0.1 mm 2 mps 645 mmHg 92%
    03:00 -2°C° 0.1 mm 1 mps 645 mmHg 91%
    04:00 -2°C° 0.1 mm 1 mps 645 mmHg 90%
    05:00 -1°C° 0.2 mm 1 mps 645 mmHg 90%
    06:00 -1°C° 0.2 mm 1 mps 645 mmHg 89%
    07:00 0°C° 0.2 mm 1 mps 645 mmHg 88%
    08:00 +1°C° 0.1 mm 1 mps 645 mmHg 85%
    09:00 +3°C° 0.1 mm 1 mps 646 mmHg 83%
    10:00 +4°C° 0.1 mm 1 mps 646 mmHg 80%
    11:00 +5°C° 0.2 mm 1 mps 646 mmHg 78%
    12:00 +5°C° 0.2 mm 0 mps 646 mmHg 75%
    13:00 +6°C° 0.2 mm 0 mps 646 mmHg 73%
    14:00 +6°C° 0.3 mm 0 mps 646 mmHg 72%
    15:00 +6°C° 0.3 mm 0 mps 646 mmHg 72%
    16:00 +6°C° 0.3 mm 0 mps 646 mmHg 71%
    17:00 +4°C° 0.1 mm 0 mps 646 mmHg 74%
    18:00 +3°C° 0.1 mm 0 mps 645 mmHg 78%
    19:00 +2°C° 0.1 mm 0 mps 645 mmHg 81%
    20:00 +1°C° 0 mm 0 mps 645 mmHg 83%
    21:00 +1°C° 0 mm 1 mps 645 mmHg 85%
    22:00 0°C° 0 mm 1 mps 646 mmHg 87%
    23:00 -2°C° 0 mm 2 mps 645 mmHg 87%

    30 April, Tuesday

    Time Temperature Precipitation Wind Pressure Humidity
    00:00 -3°C° 0 mm 2 mps 645 mmHg 87%
    01:00 -4°C° 0 mm 2 mps 645 mmHg 88%
    02:00 -4°C° 0 mm 2 mps 645 mmHg 87%
    03:00 -4°C° 0 mm 2 mps 645 mmHg 86%
    04:00 -4°C° 0 mm 2 mps 644 mmHg 85%
    05:00 -1°C° 0 mm 1 mps 645 mmHg 82%
    06:00 0°C° 0 mm 1 mps 645 mmHg 79%
    07:00 +1°C° 0 mm 1 mps 645 mmHg 76%
    08:00 +3°C° 0 mm 1 mps 646 mmHg 71%
    09:00 +6°C° 0 mm 1 mps 646 mmHg 66%
    10:00 +8°C° 0 mm 1 mps 646 mmHg 61%
    11:00 +8°C° 0 mm 1 mps 646 mmHg 60%
    12:00 +9°C° 0 mm 1 mps 646 mmHg 59%
    13:00 +9°C° 0 mm 1 mps 646 mmHg 57%
    14:00 +9°C° 0.1 mm 1 mps 645 mmHg 57%
    15:00 +9°C° 0.1 mm 1 mps 645 mmHg 58%
    16:00 +9°C° 0.1 mm 1 mps 645 mmHg 58%
    17:00 +7°C° 0.1 mm 1 mps 645 mmHg 64%
    18:00 +6°C° 0.1 mm 1 mps 644 mmHg 70%
    19:00 +4°C° 0.1 mm 1 mps 644 mmHg 76%
    20:00 +3°C° 0 mm 1 mps 644 mmHg 79%
    21:00 +2°C° 0 mm 1 mps 644 mmHg 83%
    22:00 -1°C° 0 mm 2 mps 644 mmHg 86%
    23:00 -2°C° 0 mm 2 mps 644 mmHg 86%

    1 May, Wednesday

    Time Temperature Precipitation Wind Pressure Humidity
    00:00 -2°C° 0 mm 2 mps 644 mmHg 85%
    01:00 -2°C° 0 mm 2 mps 644 mmHg 85%
    02:00 -3°C° 0 mm 2 mps 643 mmHg 84%
    03:00 -3°C° 0 mm 2 mps 643 mmHg 83%
    04:00 -3°C° 0 mm 2 mps 643 mmHg 82%
    05:00 -2°C° 0 mm 2 mps 643 mmHg 78%
    06:00 +2°C° 0 mm 1 mps 643 mmHg 74%
    07:00 +3°C° 0 mm 1 mps 644 mmHg 69%
    08:00 +6°C° 0 mm 1 mps 644 mmHg 62%
    09:00 +8°C° 0 mm 0 mps 645 mmHg 55%
    10:00 +11°C° 0 mm 0 mps 645 mmHg 48%
    11:00 +12°C° 0 mm 0 mps 645 mmHg 45%
    12:00 +14°C° 0 mm 1 mps 645 mmHg 42%
    13:00 +15°C° 0 mm 1 mps 645 mmHg 40%
    14:00 +15°C° 0 mm 1 mps 645 mmHg 41%
    15:00 +14°C° 0 mm 1 mps 644 mmHg 42%
    16:00 +14°C° 0 mm 1 mps 644 mmHg 43%
    17:00 +12°C° 0 mm 1 mps 643 mmHg 51%
    18:00 +10°C° 0 mm 1 mps 643 mmHg 59%
    19:00 +9°C° 0 mm 1 mps 642 mmHg 68%
    20:00 +7°C° 0 mm 1 mps 642 mmHg 69%
    21:00 +5°C° 0 mm 2 mps 642 mmHg 70%
    22:00 +4°C° 0 mm 2 mps 642 mmHg 71%
    23:00 +4°C° 0 mm 2 mps 642 mmHg 72%
    Show more